Regional Weather Roundup
Issued by NWS Goodland, KS

Home | Current Version | Previous Version | Graphics & Text | Print | Product List | Glossary On
Versions: 1 2 3 4 5 6 7 8 9 10 11 12 13 14 15 16 17 18 19 20 21 22 23 24 25 26 27 28 29 30 31 32 33 34 35 36 37 38 39 40 41 42 43 44 45 46 47 48 49 50
000
ASUS43 KGLD 252008
RWRGLD

GOODLAND FORECAST AREA HOURLY WEATHER ROUNDUP
NATIONAL WEATHER SERVICE GOODLAND KS
100 PM MST TUE NOV 25 2014

...OFFICIAL OBSERVATIONS...

CITY           SKY/WX    TMP DP  RH WIND       PRES   REMARKS
GOODLAND KS    CLOUDY    47   9  21 SW17G25   29.91F
HILL CITY KS   CLOUDY    49  17  28 SW10      29.97F
IMPERIAL NEB   CLOUDY    47  20  34 W18G26    29.86F
MCCOOK NEB     CLOUDY    47  15  27 SW16G25   29.90F
AKRON CO       CLOUDY    47  11  23 W16       29.86F
BURLINGTON CO  CLOUDY    45   7  21 SW15      29.90F
LIMON CO       CLOUDY    45  12  26 W21G29    29.90F
$$

...UNOFFICIAL OBSERVATIONS...

CITY           SKY/WX    TMP DP  RH WIND       PRES   REMARKS
COLBY KS       MOSUNNY   48  18  29 S21       29.91F
GOVE KS          N/A     49  32  52 MISG        N/A
NORTON KS      CLOUDY    48  12  23 S16G28    29.92F
SHARON SPRINGS   N/A     48  13  24 SW21G28     N/A
TRIBUNE KS     CLOUDY    50  21  32 SW18G25   29.96F
TRENTON NEB      N/A     47  32  56 SW14        N/A
YUMA CO          N/A     47  11  23 SW13G20     N/A
$$


USA.gov is the U.S. government's official web portal to all federal, state and local government web resources and services.